Date,TemperatureHighF,TemperatureAvgF,TemperatureLowF,DewpointHighF,DewpointAvgF,DewpointLowF,HumidityHigh,HumidityAvg,HumidityLow,PressureMaxIn,PressureMinIn,WindSpeedMaxMPH,WindSpeedAvgMPH,GustSpeedMaxMPH,PrecipitationSumIn
2013-1-1,37.9,34.4,30.6,36.2,30.3,24.7,98,85,68,30.24,29.97,3,1,4,0.00
2013-1-2,47.5,33.1,23.0,28.6,23.5,17.9,88,69,44,30.30,30.15,1,1,1,0.00
2013-1-3,53.1,30.7,17.6,33.0,20.3,13.3,88,68,39,30.42,30.27,1,1,1,0.00
2013-1-4,52.2,36.7,22.6,30.8,24.3,17.1,86,63,39,30.48,30.27,1,1,1,0.00
2013-1-5,57.9,40.1,24.6,38.3,29.4,19.4,93,68,39,30.30,30.12,6,1,8,0.00
2013-1-6,61.7,36.4,21.7,31.7,16.3,-11.0,90,56,6,30.36,30.24,4,1,6,0.00
2013-1-7,57.2,34.6,15.8,30.4,21.5,9.6,80,61,35,30.30,30.03,6,1,9,0.00
2013-1-8,51.6,44.5,33.8,46.4,36.9,27.4,96,76,50,30.12,29.91,4,0,5,0.17
2013-1-9,54.0,50.7,46.4,52.9,49.9,45.0,98,97,95,30.18,30.00,5,1,9,0.49
2013-1-10,64.9,53.8,0.0,57.4,51.1,44.1,98,90,61,30.00,29.77,8,2,10,1.00
2013-1-11,73.2,55.5,43.0,52.2,47.2,41.9,98,77,37,29.83,29.65,8,2,15,0.00
2013-1-12,59.7,44.7,30.2,58.0,36.2,20.6,95,74,43,29.94,29.71,4,2,11,0.21
2013-1-13,43.0,30.0,18.9,20.6,14.6,8.9,70,54,38,30.30,29.91,6,2,10,0.00
2013-1-14,48.6,29.9,17.1,20.0,11.6,-4.1,76,49,12,30.36,30.21,6,1,9,0.00
2013-1-15,39.4,28.4,19.2,21.1,15.4,10.0,75,59,43,30.24,30.12,3,0,4,0.00
2013-1-16,54.9,31.1,13.3,25.0,12.8,-10.4,78,53,7,30.21,30.09,5,0,8,0.00
2013-1-17,63.0,35.4,22.3,33.9,21.0,13.2,87,59,28,30.48,30.15,4,1,8,0.00
2013-1-18,65.3,40.5,21.2,34.6,24.8,15.9,85,58,27,30.48,30.15,7,1,10,0.00
2013-1-19,70.2,49.0,0.0,38.9,32.5,25.7,87,58,28,30.42,30.03,6,2,8,0.00
2013-1-20,72.5,44.7,25.2,45.5,32.2,21.5,94,66,32,30.18,30.03,7,1,8,0.00
2013-1-21,57.2,39.2,24.8,37.6,12.2,-11.0,84,39,6,30.30,30.12,5,1,7,0.00
2013-1-22,64.8,40.3,20.7,35.6,25.2,12.0,86,58,32,30.27,30.09,6,1,10,0.00
2013-1-23,78.3,52.2,33.3,51.6,41.0,30.9,95,70,37,30.21,30.03,5,1,9,0.00
2013-1-24,57.0,42.5,32.9,44.8,34.7,25.6,97,76,46,30.15,30.03,4,0,6,0.00
2013-1-25,49.7,36.5,29.5,27.4,24.9,20.4,90,65,40,30.18,30.03,4,1,7,0.00
2013-1-26,41.3,36.1,26.3,37.7,32.8,21.0,98,88,76,30.21,30.00,6,2,9,0.00
2013-1-27,58.4,46.8,37.9,51.1,44.0,37.4,98,91,68,30.03,29.80,8,2,9,0.00
2013-1-28,64.4,58.6,48.6,53.8,52.0,47.2,98,79,61,29.91,29.71,8,4,15,0.00
2013-1-29,62.2,52.7,38.7,53.7,46.6,26.7,97,80,53,29.74,29.38,8,3,13,0.20
2013-1-30,47.2,35.1,21.2,35.2,19.9,11.4,84,56,34,30.06,29.56,6,2,10,0.00
2013-1-31,59.9,37.9,22.0,22.2,7.7,-21.8,76,42,3,30.36,30.00,7,2,10,0.00
2013-2-1,49.4,32.5,17.6,22.8,12.0,1.1,65,44,25,30.39,30.09,7,2,10,0.00
2013-2-2,61.5,37.1,21.5,29.3,20.0,15.7,83,55,23,30.27,30.09,6,1,9,0.00
2013-2-3,60.9,39.5,20.3,31.2,18.3,-17.4,87,50,4,30.27,29.88,6,1,8,0.00
2013-2-4,67.6,50.1,35.3,41.1,30.1,20.8,84,48,36,29.91,29.74,6,1,10,0.00
2013-2-5,54.4,43.0,32.9,46.9,39.4,29.0,96,87,72,30.00,29.85,3,0,5,0.00
2013-2-6,50.8,46.2,40.4,49.9,45.2,39.2,98,96,92,29.97,29.80,7,2,11,0.00
2013-2-7,63.0,48.5,35.6,54.6,44.8,32.3,98,88,50,30.12,29.77,10,2,14,0.50
2013-2-8,56.3,38.0,25.5,34.0,25.8,19.1,98,67,27,30.24,30.09,5,1,6,0.00
2013-2-9,42.2,37.1,27.8,41.7,33.2,23.3,98,86,71,30.09,29.68,8,4,13,0.00
2013-2-10,59.9,45.5,31.2,47.6,27.6,-18.6,98,59,4,30.00,29.62,6,2,10,0.54
2013-2-11,56.3,38.9,23.8,25.4,19.5,-15.1,83,52,8,30.18,30.00,6,1,8,0.54
2013-2-12,36.8,34.2,30.6,35.4,30.9,21.1,95,88,63,30.03,29.85,5,1,7,0.54
2013-2-13,56.0,37.7,25.1,32.5,26.2,17.3,95,68,26,30.06,29.77,5,1,7,0.54
2013-2-14,64.4,40.5,21.5,33.7,19.0,-26.9,92,54,3,30.15,29.91,4,1,7,0.00
2013-2-15,46.6,36.0,22.2,26.7,14.4,-13.1,63,43,13,30.36,30.15,6,2,8,0.00
2013-2-16,52.1,40.5,21.1,26.1,4.9,-17.3,86,34,5,30.39,30.00,6,1,8,0.00
2013-2-17,65.8,46.4,27.8,28.9,14.8,-27.3,75,39,2,30.06,29.77,9,3,15,0.00
2013-2-18,62.7,48.7,31.8,43.2,29.8,14.7,77,50,28,30.09,29.62,10,4,15,0.00
2013-2-19,57.5,38.4,22.2,26.1,8.3,-19.5,80,41,4,30.30,30.06,6,1,10,0.00
2013-2-20,39.9,32.7,29.3,31.7,26.7,15.2,96,80,37,30.21,29.83,7,3,13,1.08
2013-2-21,52.9,36.2,26.4,35.3,26.9,17.0,97,71,40,29.94,29.59,10,3,16,0.50
2013-2-22,45.9,35.3,18.3,19.0,14.3,8.8,73,44,30,30.12,29.91,5,2,7,0.00
2013-2-23,51.2,31.6,18.0,21.6,16.0,12.0,81,56,26,30.09,29.85,4,0,6,0.00
2013-2-24,59.8,41.4,22.0,31.4,25.3,15.9,88,56,33,29.88,29.62,10,3,16,0.00
2013-2-25,42.7,37.3,30.6,38.0,31.5,25.1,95,81,50,29.65,29.38,6,2,10,0.46
2013-2-26,52.0,36.7,25.1,28.0,23.4,16.5,89,62,31,29.88,29.56,6,2,12,0.04
2013-2-27,50.8,35.2,24.8,24.7,19.6,13.3,86,57,26,30.18,29.85,6,1,10,0.00
2013-2-28,62.6,41.2,25.1,33.7,23.4,16.1,84,53,21,30.24,30.12,6,1,11,0.00
2013-3-1,58.3,37.3,23.9,32.7,23.5,18.0,88,60,36,30.27,30.15,5,1,8,0.00
2013-3-2,61.2,43.3,28.0,27.3,21.6,18.7,70,45,25,30.27,30.15,5,1,8,0.00
2013-3-3,74.7,51.9,27.7,33.5,26.9,8.6,76,44,9,30.15,29.65,9,3,16,0.00
2013-3-4,85.1,64.4,45.5,40.8,36.4,32.2,75,38,20,29.88,29.50,11,3,18,0.00
2013-3-5,60.8,45.8,34.7,37.7,14.9,-11.0,74,37,6,30.33,29.88,7,2,14,0.00
2013-3-6,67.3,41.8,21.2,26.6,9.8,-12.7,74,38,4,30.42,30.15,6,1,8,0.00
2013-3-7,76.8,53.9,32.5,30.8,11.9,-20.3,56,30,2,30.18,29.97,10,2,14,0.00
2013-3-8,62.8,56.1,51.1,53.8,43.2,26.8,89,63,36,30.12,29.88,8,2,12,0.00
2013-3-9,64.8,59.5,54.9,62.0,56.5,51.0,98,90,73,29.91,29.56,8,2,14,0.58
2013-3-10,54.9,44.6,0.0,54.1,34.8,23.9,98,69,48,30.06,29.62,5,2,12,0.04
2013-3-11,64.2,41.4,25.0,27.1,18.4,-10.8,88,52,5,30.06,29.94,5,1,6,0.00
2013-3-12,69.3,45.8,26.1,39.1,27.9,16.4,88,56,21,30.30,29.94,6,1,10,0.00
2013-3-13,72.9,48.8,0.0,38.2,19.4,-14.7,86,47,3,30.42,30.27,6,1,10,0.00
2013-3-14,86.0,59.5,37.0,46.6,36.3,27.9,73,46,22,30.30,30.09,6,1,11,0.00
2013-3-15,88.3,68.0,50.7,50.3,43.8,37.8,76,46,23,30.12,29.77,8,3,14,0.00
2013-3-16,88.2,70.6,57.4,52.7,47.3,37.6,70,45,29,29.77,29.62,8,2,12,0.00
2013-3-17,61.3,51.7,41.0,51.5,39.3,34.9,88,63,46,29.80,29.59,4,1,7,0.00
2013-3-18,74.5,52.5,37.6,44.4,36.6,25.6,96,61,25,30.00,29.56,6,1,10,0.00
2013-3-19,66.9,49.3,0.0,45.2,27.6,-8.2,88,51,5,30.15,29.91,8,1,12,0.00
2013-3-20,72.5,52.5,32.7,35.5,17.1,-14.6,70,36,3,30.30,30.00,6,1,8,0.00
2013-3-21,65.3,50.8,41.2,41.6,33.1,24.9,72,51,41,30.00,29.50,10,3,17,0.04
2013-3-22,51.1,45.5,0.0,40.1,37.6,34.1,88,73,63,29.83,29.56,7,2,11,0.00
2013-3-23,51.8,46.1,42.1,46.6,42.7,38.8,95,88,77,29.83,29.62,6,1,9,0.09
2013-3-24,56.5,40.6,27.7,39.8,25.8,9.9,93,58,33,30.18,29.83,7,3,14,0.00
2013-3-25,59.0,37.7,20.3,21.7,4.8,-13.5,78,35,6,30.36,30.15,7,2,12,0.00
2013-3-26,66.6,40.1,16.0,26.3,5.6,-12.7,72,36,4,30.42,30.21,6,1,9,0.00
2013-3-27,73.8,52.5,30.2,35.9,27.0,16.9,63,40,21,30.24,29.97,11,3,19,0.00
2013-3-28,78.1,60.2,41.9,53.8,44.8,31.6,84,59,40,30.15,30.00,9,2,15,0.00
2013-3-29,82.8,67.1,57.4,59.1,54.9,51.4,92,67,40,30.09,29.91,8,3,13,0.00
2013-3-30,87.4,67.7,52.7,62.0,56.6,51.0,97,71,39,30.00,29.80,8,2,12,0.00
2013-3-31,81.3,63.7,45.3,59.2,49.1,36.8,98,65,30,29.94,29.74,7,1,10,0.45
2013-4-1,88.2,61.0,36.7,54.2,39.3,18.2,95,55,11,30.06,29.91,7,1,8,0.00
2013-4-2,55.0,46.1,41.4,47.6,43.8,39.9,97,92,57,30.06,29.94,7,2,10,2.28
2013-4-3,46.2,42.2,39.4,41.6,38.8,33.3,97,88,63,30.15,30.00,6,2,9,0.33
2013-4-4,59.5,45.2,38.3,42.7,38.3,35.9,95,79,47,30.18,30.03,4,1,5,0.09
2013-4-5,76.1,53.5,31.3,51.4,39.4,29.7,97,65,31,30.21,29.91,6,1,8,0.00
2013-4-6,83.5,65.7,54.7,54.4,48.1,44.1,84,56,31,29.94,29.77,9,3,17,0.00
2013-4-7,71.4,64.2,56.5,60.3,58.0,53.1,95,81,67,29.83,29.65,10,3,15,0.00
2013-4-8,86.0,70.9,63.0,62.6,60.3,57.6,88,71,43,29.68,29.56,10,4,19,0.00
2013-4-9,84.9,71.7,0.0,64.3,60.0,36.6,85,67,46,29.80,29.56,11,4,20,0.00
2013-4-10,47.8,39.4,32.7,39.2,33.9,28.0,96,81,59,29.94,29.74,6,2,11,0.66
2013-4-11,70.2,47.3,31.6,38.3,31.6,27.5,89,60,27,29.94,29.74,6,1,8,0.00
2013-4-12,79.5,53.8,33.3,44.0,35.9,29.8,95,57,23,30.00,29.80,5,1,8,0.00
2013-4-13,84.6,61.8,42.3,48.9,42.0,36.1,86,52,27,29.97,29.68,9,2,15,0.00
2013-4-14,86.5,68.5,48.6,62.6,52.1,42.4,88,59,34,29.71,29.44,10,2,19,0.00
2013-4-15,94.5,75.9,55.6,69.3,62.0,54.1,97,67,37,29.71,29.53,9,2,17,0.00
2013-4-16,82.8,71.1,63.0,66.4,62.3,57.2,91,75,48,29.85,29.68,6,1,9,0.00
2013-4-17,88.2,75.8,59.5,70.5,65.5,55.7,97,72,44,29.85,29.50,9,4,19,0.00
2013-4-18,75.9,50.3,33.3,68.4,37.1,23.1,92,63,39,30.15,29.50,9,3,14,0.08
2013-4-19,72.9,48.7,28.6,32.2,24.4,-14.6,87,50,3,30.21,30.03,5,1,8,0.00
2013-4-20,79.9,59.3,41.2,38.8,16.8,-20.3,67,33,2,30.12,29.94,10,3,14,0.00
2013-4-21,78.3,61.4,46.9,46.3,40.2,31.2,66,47,31,30.15,30.00,9,2,13,0.00
2013-4-22,84.9,65.1,45.5,56.3,48.9,40.7,87,59,34,30.06,29.77,8,2,14,0.00
2013-4-23,65.8,52.1,38.8,56.2,44.8,31.1,86,76,69,30.18,29.74,6,2,13,0.00
2013-4-24,72.0,48.8,29.7,33.0,24.4,-14.2,85,48,3,30.30,30.15,6,2,9,0.00
2013-4-25,82.8,55.6,27.9,41.0,23.4,-19.7,86,45,2,30.33,30.09,6,1,10,0.00
2013-4-26,73.8,64.3,54.7,64.0,51.9,38.8,92,65,46,30.15,29.88,7,2,12,0.00
2013-4-27,78.6,63.4,47.8,64.2,52.7,44.4,93,71,40,30.09,29.88,4,1,8,0.00
2013-4-28,95.2,64.3,0.0,58.9,49.7,40.3,97,66,23,30.00,29.80,6,1,8,0.00
2013-4-29,96.3,74.7,57.2,65.8,55.5,42.8,97,59,22,29.83,29.68,7,2,17,0.00
2013-4-30,94.1,73.7,55.6,61.8,56.3,52.5,94,59,29,29.77,29.68,7,2,12,0.00
2013-5-1,93.6,72.4,58.1,69.5,60.1,47.6,95,69,33,30.03,29.74,9,2,13,0.00
2013-5-2,57.7,46.0,38.3,47.5,37.6,30.2,89,73,58,30.33,30.03,7,3,12,0.09
2013-5-3,73.8,50.6,32.7,37.5,23.6,-20.0,91,49,3,30.30,29.97,7,2,13,0.04
2013-5-4,73.2,51.4,30.2,40.9,23.3,-14.7,89,48,3,30.03,29.85,9,2,13,0.00
2013-5-5,72.9,55.6,41.7,47.8,39.9,33.4,83,57,38,30.15,29.97,5,1,7,0.00
2013-5-6,90.9,61.6,37.6,55.3,45.2,34.6,96,61,28,30.09,29.91,5,1,7,0.00
2013-5-7,95.9,69.7,48.7,57.4,49.0,44.5,93,56,19,30.03,29.85,6,1,8,0.00
2013-5-8,97.0,74.1,55.2,62.2,51.6,16.7,89,52,7,29.91,29.77,7,2,11,0.08
2013-5-9,82.2,68.4,61.0,67.5,61.1,57.4,94,79,54,29.91,29.80,6,1,8,0.04
2013-5-10,88.3,69.3,56.3,66.9,56.6,47.8,97,69,35,30.03,29.85,5,1,6,0.00
2013-5-11,94.8,68.3,47.3,60.9,49.7,43.2,96,59,22,30.21,30.03,4,1,6,0.00
2013-5-12,91.2,66.1,42.4,48.5,24.6,-20.3,86,40,2,30.24,30.03,5,1,8,0.00
2013-5-13,103.1,75.2,51.6,53.3,31.9,-11.4,68,33,2,30.15,29.97,5,1,8,0.00
2013-5-14,101.5,79.1,57.9,58.2,48.5,25.3,70,38,7,30.09,29.88,6,2,10,0.00
2013-5-15,87.8,65.7,60.4,68.6,61.0,48.6,98,87,46,29.94,29.71,5,1,8,1.08
2013-5-16,71.8,65.9,61.0,66.6,63.4,60.4,98,92,80,29.80,29.71,4,1,6,0.17
2013-5-17,88.5,73.0,0.0,76.1,68.7,63.5,97,86,61,29.85,29.74,4,1,6,0.00
2013-5-18,98.6,81.6,0.0,75.5,70.2,64.1,97,72,38,29.83,29.68,6,2,9,0.00
2013-5-19,95.9,81.4,0.0,69.5,66.4,63.6,85,61,41,29.80,29.53,7,3,14,0.00
2013-5-20,96.4,77.3,65.1,70.8,66.8,59.7,94,72,42,29.74,29.53,6,2,13,0.83
2013-5-21,68.4,62.2,54.9,66.3,60.3,53.8,98,94,81,29.88,29.68,6,1,10,4.32
2013-5-22,97.2,70.1,50.0,70.4,56.8,49.5,98,70,28,29.88,29.80,3,0,5,0.00
2013-5-23,95.5,65.5,0.0,72.9,61.2,56.4,98,87,33,30.03,29.85,9,1,15,2.12
2013-5-24,90.7,74.4,61.7,73.4,66.5,60.1,97,78,51,30.12,30.00,5,1,8,0.00
2013-5-25,91.4,71.3,63.1,70.7,65.2,59.7,96,83,47,30.15,29.94,6,1,8,0.00
2013-5-26,91.2,76.0,65.1,74.3,69.1,63.7,97,81,50,30.03,29.85,5,1,9,0.00
2013-5-27,73.9,73.8,73.8,70.8,70.7,70.5,90,90,90,29.91,29.91,2,2,4,0.00
2013-5-28,86.4,75.7,70.9,68.8,66.4,63.6,83,74,49,29.80,29.65,7,2,11,0.13
2013-5-29,82.2,74.2,63.5,74.4,68.1,60.5,98,82,69,29.77,29.62,7,2,12,0.70
2013-5-30,95.2,76.6,66.7,76.3,69.6,65.9,98,81,42,29.71,29.59,7,2,11,0.46
2013-5-31,98.4,83.0,74.3,74.3,71.2,67.5,92,70,42,29.77,29.56,6,2,9,0.09
2013-6-1,94.1,76.6,61.3,73.3,64.3,52.1,95,70,31,29.97,29.59,4,1,11,0.58
2013-6-2,91.0,70.3,56.5,63.6,54.2,47.4,96,63,29,30.06,29.91,4,1,7,0.00
2013-6-3,96.1,72.7,54.7,64.0,58.6,52.7,96,66,34,29.97,29.80,4,1,6,0.00
2013-6-4,97.5,78.1,65.8,72.1,66.0,61.3,97,70,37,30.00,29.74,5,1,9,1.03
2013-6-5,98.6,78.2,68.0,72.4,68.2,63.6,97,75,36,30.00,29.77,4,1,6,0.63
2013-6-6,82.8,71.1,0.0,73.7,64.8,57.3,98,81,52,29.94,29.83,3,0,7,1.20
2013-6-7,94.8,71.5,0.0,70.4,57.1,51.3,98,67,29,29.97,29.85,3,0,6,0.00
2013-6-8,94.8,74.2,59.5,65.8,59.6,55.8,96,66,30,29.91,29.74,5,1,7,0.00
2013-6-9,100.4,77.0,65.3,72.2,64.8,59.8,96,71,32,29.91,29.74,4,0,8,0.54
2013-6-10,104.7,82.4,0.0,74.8,67.4,63.1,96,66,30,29.91,29.80,3,0,6,0.00
2013-6-11,103.8,83.9,68.0,75.5,68.2,63.9,93,64,33,29.97,29.85,4,1,7,0.00
2013-6-12,103.5,84.4,70.5,73.5,69.1,64.7,93,65,33,29.97,29.85,5,1,6,0.00
2013-6-13,109.0,86.4,71.6,76.2,70.8,65.2,91,66,29,30.00,29.85,2,0,4,0.00
2013-6-14,106.7,85.0,70.5,79.6,71.2,66.7,96,69,32,29.94,29.83,4,0,5,0.00
2013-6-15,95.9,82.2,71.8,77.9,73.2,67.9,94,76,49,29.97,29.83,4,0,5,0.00
2013-6-16,105.4,84.6,0.0,77.7,70.1,65.6,94,66,32,29.94,29.80,3,0,4,0.00
2013-6-17,97.3,77.7,66.4,77.6,68.1,64.7,98,75,41,29.94,29.80,5,0,6,1.54
2013-6-18,97.2,78.1,66.6,72.6,66.5,59.5,96,72,33,29.97,29.88,4,0,4,0.00
2013-6-19,91.2,77.2,65.3,75.1,69.2,64.0,97,78,49,29.97,29.83,4,0,5,0.00
2013-6-20,102.7,85.0,72.5,77.6,70.6,63.7,94,66,35,29.97,29.85,4,1,6,0.00
2013-6-21,103.1,85.1,71.2,75.0,69.5,61.3,92,64,32,30.00,29.88,4,1,7,0.00
2013-6-22,103.3,84.3,0.0,72.2,67.3,61.3,90,60,30,29.94,29.83,5,1,6,0.00
2013-6-23,102.7,85.9,73.8,73.7,67.8,62.4,86,58,29,29.91,29.80,5,1,8,0.00
2013-6-24,102.2,85.2,74.5,71.6,67.8,64.1,80,59,35,29.97,29.83,4,1,7,0.00
2013-6-25,100.6,85.8,74.5,72.6,68.2,65.3,78,58,37,29.91,29.74,5,1,7,0.00
2013-6-26,105.6,86.2,72.0,74.7,69.7,65.4,88,61,35,29.91,29.74,4,0,6,0.00
2013-6-27,113.4,88.2,70.5,76.1,71.6,64.6,95,65,26,29.97,29.80,3,0,4,0.00
2013-6-28,109.0,87.2,71.4,73.4,66.9,58.0,85,56,26,29.94,29.80,3,0,5,0.00
2013-6-29,106.2,82.8,66.9,74.0,64.0,56.4,92,60,25,29.91,29.80,3,0,6,0.00
2013-6-30,100.8,80.0,64.2,65.1,57.5,50.9,81,51,25,29.94,29.80,4,0,6,0.00
2013-7-1,100.2,74.6,57.4,64.4,54.6,44.9,91,56,27,30.03,29.91,4,0,8,0.00
2013-7-2,101.8,74.6,54.3,63.5,53.6,47.6,90,55,19,30.09,29.94,3,0,6,0.00
2013-7-3,103.3,74.5,54.9,65.9,55.1,49.6,93,58,20,30.06,29.91,3,0,6,0.00
2013-7-4,104.2,79.5,60.6,68.4,58.6,52.5,89,55,24,29.97,29.85,3,0,5,0.00
2013-7-5,104.5,81.2,0.0,72.2,62.2,56.6,88,56,26,29.97,29.80,3,0,6,0.00
2013-7-6,106.7,83.5,0.0,68.9,61.8,57.8,81,50,25,29.91,29.80,5,0,8,0.00
2013-7-7,107.2,84.8,69.3,72.5,64.3,59.4,83,55,26,29.94,29.88,4,0,6,0.00
2013-7-8,107.6,85.4,71.2,75.9,68.5,62.2,90,61,29,30.03,29.91,4,0,6,0.00
2013-7-9,110.5,87.9,72.5,71.8,67.0,62.5,82,55,26,30.03,29.91,5,0,6,0.00
2013-7-10,116.2,89.1,73.0,72.9,67.2,62.2,76,53,22,30.00,29.83,3,0,5,0.00
2013-7-11,117.9,88.9,72.5,76.3,67.4,61.8,87,55,20,29.91,29.80,4,0,8,0.00
2013-7-12,111.2,87.1,0.0,76.4,68.2,62.8,92,59,26,29.94,29.85,3,0,6,0.00
2013-7-13,111.0,87.9,73.2,69.5,65.2,60.6,85,52,25,29.97,29.83,4,0,6,0.00
2013-7-14,79.7,71.5,63.1,70.4,65.3,57.0,97,82,49,30.03,29.85,3,0,4,0.83
2013-7-15,82.8,69.1,63.0,74.5,66.1,62.1,98,91,63,30.09,29.94,3,0,5,0.99
2013-7-16,96.4,77.1,68.5,75.2,69.9,67.1,97,81,47,30.18,30.06,3,0,5,0.17
2013-7-17,98.6,80.6,69.3,78.8,70.3,65.4,96,75,39,30.24,30.09,4,0,6,0.00
2013-7-18,105.3,85.3,68.4,81.1,69.3,62.6,96,65,30,30.18,29.97,1,0,3,0.00
2013-7-19,108.9,84.5,69.3,78.9,69.5,64.2,96,67,28,30.03,29.85,3,0,5,0.00
2013-7-20,107.8,83.6,70.5,76.8,70.2,65.1,95,69,29,29.94,29.80,3,0,3,0.00
2013-7-21,108.9,86.1,71.8,76.3,70.4,64.5,94,65,32,29.88,29.74,2,0,5,0.00
2013-7-22,108.3,87.7,74.5,76.7,71.8,66.9,89,64,32,29.91,29.80,4,0,6,0.00
2013-7-23,109.6,88.9,75.0,76.5,72.2,67.6,88,62,33,29.88,29.74,3,0,4,0.00
2013-7-24,99.5,80.3,65.8,79.9,70.4,63.7,98,75,39,30.00,29.77,7,0,13,0.91
2013-7-25,99.7,80.5,68.0,77.8,70.5,66.8,97,75,40,30.03,29.91,3,0,4,0.00
2013-7-26,97.7,77.2,0.0,80.7,72.0,65.0,97,84,53,29.97,29.83,4,0,6,1.16
2013-7-27,93.7,75.5,0.0,67.8,64.0,57.3,95,71,36,30.00,29.88,3,0,6,0.00
2013-7-28,95.2,69.6,63.6,69.5,62.6,57.6,97,83,32,29.97,29.85,4,0,7,0.00
2013-7-29,91.1,81.8,71.1,73.7,69.6,67.0,88,67,47,29.94,29.83,4,1,7,0.00
2013-7-30,100.7,80.7,68.7,72.2,68.5,65.5,94,70,37,29.97,29.85,4,0,6,0.05
2013-7-31,100.3,80.8,68.9,75.7,69.3,66.3,96,72,37,30.00,29.91,3,0,8,0.00
2013-8-1,100.7,80.7,68.2,76.1,68.0,62.1,96,70,33,30.03,29.85,3,0,5,0.00
2013-8-2,105.6,84.2,71.3,72.4,67.1,58.2,91,63,25,29.91,29.80,3,0,5,0.00
2013-8-3,103.9,82.6,70.1,70.2,65.3,59.9,85,61,28,29.97,29.83,3,0,6,0.00
2013-8-4,104.6,82.6,68.4,72.2,66.1,58.7,94,63,28,30.00,29.85,4,0,5,0.00
2013-8-5,107.2,82.9,0.0,73.3,65.8,59.2,91,61,25,29.91,29.74,3,0,6,0.00
2013-8-6,108.4,84.4,68.7,69.3,62.7,55.2,81,54,23,29.83,29.68,4,0,6,0.00
2013-8-7,108.7,85.3,70.2,70.8,64.6,60.0,77,54,25,29.80,29.68,3,0,4,0.00
2013-8-8,102.2,81.8,68.5,73.9,67.1,59.1,95,66,29,29.83,29.71,4,0,8,0.16
2013-8-9,100.5,79.6,68.7,72.8,68.1,58.9,95,72,36,29.88,29.68,4,0,6,0.00
2013-8-10,97.1,78.1,66.1,69.4,65.1,58.8,92,69,32,29.83,29.29,3,0,6,0.00
2013-8-11,102.6,78.9,62.5,72.9,63.3,56.1,96,66,27,29.41,28.94,3,0,6,0.00
2013-8-12,104.1,79.1,68.5,72.4,66.9,61.0,93,72,27,29.03,28.56,3,0,5,0.00
2013-8-13,92.8,75.7,0.0,72.8,68.2,62.1,96,78,42,29.20,0.00,4,0,6,0.00
2013-8-14,94.0,74.9,64.8,71.3,64.1,58.1,95,73,36,29.26,29.12,3,0,6,0.00
2013-8-15,93.2,73.5,63.1,62.6,59.6,54.6,92,66,33,29.26,29.12,4,0,5,0.00
2013-8-16,90.6,71.3,60.8,68.8,61.2,55.3,98,75,36,29.26,29.12,6,0,10,0.50
2013-8-17,91.6,71.1,56.9,64.3,57.9,53.6,96,69,32,29.29,29.18,4,0,5,0.00
2013-8-18,93.5,72.3,57.2,66.8,58.7,52.4,96,68,30,29.29,29.15,3,0,5,0.00
2013-8-19,97.1,74.6,60.0,66.7,59.4,52.8,96,66,27,29.26,29.12,4,0,7,0.00
2013-8-20,100.7,76.1,61.0,65.3,58.1,49.9,91,60,25,29.24,29.12,3,0,6,0.00
2013-8-21,101.9,77.4,61.2,66.8,57.6,49.7,92,58,20,29.26,29.12,4,0,5,0.00
2013-8-22,102.2,79.6,61.9,67.9,61.5,57.0,92,60,27,29.26,29.06,3,0,4,0.00
2013-8-23,104.8,80.3,66.1,72.2,63.7,58.4,92,62,24,29.20,29.09,4,0,6,0.00
2013-8-24,103.2,80.8,67.0,70.2,63.2,54.4,91,61,26,29.26,29.12,4,0,6,0.00
2013-8-25,102.6,80.3,66.3,70.0,62.2,54.6,93,60,27,29.35,29.24,4,1,7,0.00
2013-8-26,100.3,78.2,65.1,69.0,60.7,53.4,91,60,27,29.35,29.20,4,0,6,0.00
2013-8-27,93.5,75.0,63.1,70.0,62.6,57.5,92,68,38,29.29,29.15,4,0,6,0.00
2013-8-28,100.3,78.2,63.6,70.3,62.8,58.1,95,65,28,29.26,29.12,3,0,4,0.00
2013-8-29,107.5,80.5,63.2,71.4,61.2,55.4,93,60,22,29.24,29.12,3,0,4,0.00
2013-8-30,111.1,81.6,64.6,67.3,60.1,50.2,90,56,15,29.18,29.00,4,0,4,0.00
2013-8-31,109.1,81.3,65.6,66.3,60.7,54.5,85,55,19,29.09,28.94,3,0,4,0.00
2013-9-1,110.8,84.0,67.0,69.6,62.1,47.4,82,55,14,29.06,28.94,3,0,7,0.00
2013-9-2,100.5,79.8,65.3,71.8,64.5,56.1,95,64,29,29.15,29.03,3,0,6,0.00
2013-9-3,101.4,75.4,57.9,65.9,56.5,50.4,94,59,22,29.20,29.06,4,0,6,0.00
2013-9-4,104.4,77.8,60.2,66.6,58.1,51.8,91,58,23,29.26,29.12,3,0,5,0.00
2013-9-5,105.6,78.5,0.0,63.5,57.5,51.3,84,54,19,29.29,29.18,4,0,6,0.00
2013-9-6,108.4,79.9,62.9,63.1,56.8,47.3,80,51,15,29.29,29.12,4,0,5,0.00
2013-9-7,108.2,80.6,64.3,65.4,59.5,55.1,81,54,21,29.18,29.06,4,0,5,0.00
2013-9-8,105.1,80.6,65.1,69.1,58.0,47.9,89,54,16,29.18,29.00,4,0,4,0.00
2013-9-9,101.2,78.4,63.7,67.4,57.1,50.2,84,54,21,29.15,29.06,6,1,6,0.00
2013-9-10,100.3,78.0,64.9,68.1,57.5,48.7,87,54,21,29.29,29.12,4,1,6,0.00
2013-9-11,103.2,77.9,58.8,66.8,56.6,51.2,88,54,24,29.32,29.15,4,0,5,0.00
2013-9-12,103.1,76.1,63.1,68.7,62.0,54.8,91,66,25,29.26,29.12,3,0,6,0.00
2013-9-13,101.0,76.6,64.6,69.7,63.1,55.8,94,68,28,29.18,29.06,4,0,7,0.00
2013-9-14,95.4,75.4,62.9,63.5,54.1,48.1,86,52,26,29.20,29.06,5,1,7,0.00
2013-9-15,103.2,76.8,62.5,65.9,56.1,46.6,75,51,27,29.24,29.12,4,0,6,0.00
2013-9-16,100.0,78.6,63.1,65.7,59.1,53.1,88,56,26,29.29,29.12,4,0,7,0.00
2013-9-17,102.9,77.9,65.1,63.9,58.9,52.6,83,56,23,29.26,29.12,5,0,6,0.00
2013-9-18,98.1,79.0,67.7,70.3,61.6,53.9,87,60,29,29.18,29.00,5,0,9,0.00
2013-9-19,98.6,76.7,64.9,70.3,63.4,55.5,90,68,28,29.15,29.00,5,0,10,0.00
2013-9-20,70.4,67.3,55.5,67.9,64.3,53.5,97,90,80,29.15,29.06,3,0,7,0.17
2013-9-21,89.6,64.1,48.4,63.4,45.7,-12.2,98,62,9,29.20,29.06,4,0,9,0.00
2013-9-22,93.7,63.6,43.9,61.5,44.1,29.4,96,59,11,29.12,28.97,4,0,6,0.00
2013-9-23,95.7,66.3,48.9,61.5,47.4,42.2,94,58,22,29.03,28.88,4,0,7,0.00
2013-9-24,106.0,69.3,49.7,66.5,29.8,-18.8,93,46,2,29.12,29.00,4,0,6,0.00
2013-9-25,102.7,68.2,44.3,58.1,36.6,-11.7,90,48,2,29.09,28.91,2,0,4,0.00
2013-9-26,103.8,74.8,55.9,57.0,49.2,44.3,77,46,16,29.06,28.94,4,0,6,0.00
2013-9-27,96.9,74.8,57.2,63.5,57.4,50.9,91,60,27,29.12,28.97,4,0,8,0.00
2013-9-28,74.3,67.1,56.2,70.0,61.8,54.1,97,84,64,29.26,29.00,4,0,6,0.99
2013-9-29,89.4,63.1,47.0,64.7,47.3,36.5,98,66,18,29.26,29.06,2,0,6,0.00
2013-9-30,96.6,64.8,43.9,67.9,46.5,31.0,98,63,13,29.09,28.94,2,0,3,0.00
2013-10-1,97.6,70.8,53.5,68.0,55.4,49.8,97,66,26,29.12,29.00,4,0,6,0.00
2013-10-2,93.7,74.5,64.3,70.4,63.6,58.6,96,73,36,29.18,29.00,2,0,5,0.00
2013-10-3,97.8,78.3,67.2,70.0,63.1,56.7,90,64,29,29.09,28.94,4,0,6,0.00
2013-10-4,94.9,76.9,67.2,68.7,62.5,56.6,94,65,31,29.03,28.94,4,0,6,0.00
2013-10-5,73.3,55.2,42.9,63.6,45.9,34.7,90,72,52,29.29,29.00,3,0,6,0.08
2013-10-6,83.1,53.8,36.4,48.6,22.8,-22.6,98,54,2,29.29,29.18,2,0,7,0.00
2013-10-7,90.3,56.1,34.5,54.5,22.4,-22.4,93,52,2,29.35,29.24,2,0,5,0.00
2013-10-8,90.8,58.8,37.8,56.5,39.2,21.2,94,58,9,29.29,29.12,2,0,5,0.00
2013-10-9,90.3,63.9,48.4,54.4,46.5,42.1,93,59,22,29.24,29.12,4,0,7,0.00
2013-10-10,90.1,65.8,50.2,60.6,50.8,45.9,96,64,29,29.20,29.00,4,1,7,0.00
2013-10-11,91.1,70.1,60.2,63.9,59.7,50.7,93,72,37,29.06,28.94,4,0,6,0.00
2013-10-12,91.8,72.0,60.0,70.1,61.5,55.0,96,73,36,29.26,29.00,3,0,6,0.00
2013-10-13,72.5,64.8,56.4,66.7,60.8,54.4,95,87,75,29.38,29.24,3,0,5,0.00
2013-10-14,66.5,64.1,61.2,65.6,62.5,60.3,98,94,86,29.32,29.06,3,0,6,2.08
2013-10-15,67.0,58.0,51.1,66.1,56.3,46.4,98,94,76,29.29,29.03,3,0,6,0.37
2013-10-16,74.5,56.7,46.4,53.9,44.3,39.2,98,67,33,29.32,29.18,3,1,6,0.00
2013-10-17,79.9,54.5,37.0,53.5,43.1,35.4,98,72,31,29.26,29.12,3,0,4,0.00
2013-10-18,68.4,53.3,44.1,58.9,49.8,40.7,97,89,47,29.32,29.06,4,0,7,0.04
2013-10-19,76.6,50.4,32.9,46.8,37.1,30.9,98,68,23,29.38,29.20,3,0,4,0.00
2013-10-20,77.9,51.7,38.8,47.9,40.5,36.1,98,73,28,29.24,29.00,5,1,7,0.00
2013-10-21,63.0,52.1,39.0,52.5,45.3,36.6,97,79,53,29.32,29.06,3,0,6,0.00
2013-10-22,83.1,53.1,33.3,57.3,40.3,31.7,98,69,28,29.32,29.15,3,0,4,0.00
2013-10-23,86.5,58.6,39.9,60.1,45.4,38.1,98,69,29,29.32,29.15,4,0,8,0.00
2013-10-24,76.3,56.1,45.3,49.4,41.5,33.6,96,63,30,29.50,29.18,4,1,8,0.00
2013-10-25,73.6,52.8,38.1,41.7,36.2,31.6,86,56,32,29.62,29.41,5,1,10,0.00
2013-10-26,68.9,55.5,46.4,61.0,50.9,38.9,98,85,60,29.41,29.20,4,0,6,0.38
2013-10-27,78.3,60.1,53.2,61.9,55.7,51.8,98,87,47,29.29,29.15,3,0,4,0.04
2013-10-28,69.8,61.8,53.8,64.4,59.1,53.1,98,91,78,29.29,29.15,4,1,7,0.00
2013-10-29,79.9,70.9,67.1,69.2,66.4,64.2,95,86,68,29.20,29.12,5,1,7,0.00
2013-10-30,71.6,68.3,64.4,69.2,66.3,63.2,97,93,87,29.15,28.97,4,1,8,0.08
2013-10-31,73.0,63.4,50.5,65.8,51.7,38.4,98,71,35,29.03,28.76,5,1,7,0.12
2013-11-1,88.7,58.2,40.1,57.7,39.8,-14.0,98,61,2,29.26,28.97,4,0,9,0.00
2013-11-2,75.2,50.2,36.5,45.1,33.1,-11.7,97,61,6,29.50,29.26,4,1,7,0.00
2013-11-3,71.4,51.4,33.6,41.4,35.9,30.1,94,61,32,29.38,29.12,6,1,10,0.00
2013-11-4,67.8,58.6,52.5,57.4,51.0,40.9,98,77,54,29.26,29.12,5,1,10,0.25
2013-11-5,66.2,62.0,57.9,65.4,61.3,57.4,98,98,95,29.20,29.06,5,1,9,1.21
2013-11-6,68.5,49.1,32.4,65.8,40.0,30.1,98,75,35,29.56,29.09,6,1,10,0.41
2013-11-7,75.4,46.8,29.3,50.3,34.9,27.4,97,70,26,29.68,29.53,3,0,4,0.00
2013-11-8,72.7,52.2,33.3,48.4,35.8,29.8,97,60,23,29.53,29.24,6,1,8,0.00
2013-11-9,77.4,59.0,46.2,49.2,44.3,37.1,85,60,35,29.41,29.24,6,1,7,0.00
2013-11-10,69.6,56.6,42.6,48.1,44.6,39.9,92,66,42,29.50,29.38,4,0,5,0.00
2013-11-11,80.8,59.5,41.0,57.2,49.1,39.1,96,73,37,29.53,29.32,4,0,8,0.00
2013-11-12,56.3,39.3,23.5,34.4,15.2,-11.5,72,43,7,29.88,29.53,6,2,10,0.00
2013-11-13,58.3,34.6,18.1,27.1,18.4,4.6,83,57,13,29.85,29.50,4,1,7,0.00
2013-11-14,58.1,42.5,24.8,31.9,27.0,19.7,96,58,36,29.50,29.12,5,1,9,0.00
2013-11-15,74.5,58.3,44.4,54.5,45.0,31.6,94,64,36,29.15,28.94,4,1,8,0.00
2013-11-16,78.8,66.2,56.8,64.6,58.8,54.3,96,79,45,29.00,28.76,8,2,13,0.00
2013-11-17,86.5,68.9,53.2,65.3,47.8,25.7,93,54,16,29.24,28.76,6,2,12,0.00
2013-11-18,76.1,56.0,40.1,37.1,19.8,-20.3,62,35,2,29.38,29.20,5,1,8,0.00
2013-11-19,68.0,56.7,50.2,37.1,28.8,7.5,60,37,12,29.35,29.15,8,2,13,0.00
2013-11-20,62.1,55.8,48.2,50.3,35.9,26.6,68,48,39,29.15,29.00,6,2,9,0.00
2013-11-21,70.7,56.1,34.9,64.6,51.7,32.0,93,86,68,29.47,29.06,6,2,10,0.17
2013-11-22,34.9,32.8,31.1,32.1,28.9,25.5,94,86,75,29.68,29.47,6,2,12,0.29
2013-11-23,42.3,35.0,32.2,33.5,27.7,21.3,94,76,55,29.77,29.65,4,1,11,0.08
2013-11-24,33.3,30.6,29.1,23.6,17.6,12.2,76,59,48,29.80,29.50,4,1,7,0.00
2013-11-25,36.0,33.2,30.2,32.5,29.4,23.3,90,86,75,29.50,29.35,3,0,4,0.04
2013-11-26,56.7,40.7,29.1,34.1,27.3,15.6,91,62,34,29.56,29.32,6,2,12,0.00
2013-11-27,50.4,33.8,19.4,18.3,7.4,-12.0,71,41,8,29.62,29.47,6,1,9,0.00